Vertical_Velocity
-0 -5 -6 -2 -1 -1 -1 -1 1 -1 2 1 0 0 1 -1 -1 0 -0 -0 1 1 1 0 -1 -1 0 -1 0 -1 0 -1 -0
-1 0 0 -3 2 -0 3 -1 -0 -0 -0 0 0 1 0 -1 -1 -1 -1 -0 -0 -0 1 1 1 0 1 -0 0 -1 1 -1 -0
-2 -1 1 -1 -0 2 1 3 0 -1 -0 1 -0 -1 0 1 -0 -0 1 -0 -1 -1 1 0 0 -0 1 1 1 0 -0 1 1
-0 1 -1 -1 0 -1 1 -0 2 4 0 -2 1 2 3 1 -1 -1 -1 1 2 2 1 -0 -1 1 -0 -0 1 1 -0 1 -0
-2 -3 -0 1 -1 -0 -1 -0 -0 0 1 2 3 -0 -2 -0 3 -0 2 0 1 1 1 1 -0 -0 1 -0 -0 0 -0 1 1
-1 0 -1 -2 -1 1 -1 0 1 0 -1 2 0 3 1 1 -1 2 -0 1 1 0 -1 -0 1 -1 -1 -1 0 -2 0 -1 1
-0 -1 1 -1 -2 -2 -0 0 0 0 0 0 2 2 3 -0 -0 3 1 0 1 -1 -0 2 2 1 1 -1 2 -1 -2 0 -1
-0 0 -2 1 -0 -1 -1 0 -1 0 -2 -1 0 2 2 4 3 -1 2 1 -1 0 1 -2 -0 2 2 1 1 -3 -0 -1 -1
-1 -1 -0 0 -2 1 1 -1 -1 2 0 -2 -1 -0 0 2 1 1 1 2 0 1 0 1 0 1 1 1 2 -2 0 1 -1
1 -0 -2 -0 -2 -0 -0 -0 -1 0 -1 1 -1 -1 -1 -1 0 0 1 1 0 -0 -0 -0 1 -1 0 1 1 -0 -2 -2 1
-2 -1 0 -1 -1 -2 -0 -1 1 -2 1 0 2 -1 -1 1 1 1 2 0 -1 -0 -1 -1 -2 2 2 0 2 0 1 0 -1
-1 -1 -0 -1 -1 0 -1 -1 -0 -1 -0 -1 -0 2 2 -2 -1 -0 -0 2 1 -2 1 -1 1 -4 0 1 3 -2 -1 1 1
-1 -1 -1 -0 -1 -0 -1 0 1 2 1 0 0 -1 0 1 -1 -3 0 -1 -1 2 -1 -1 -1 -1 -2 0 0 3 0 -3 1
-2 -1 -1 -0 -0 -1 -1 -2 1 -1 1 3 1 1 -1 -1 -1 0 -1 1 0 1 5 1 0 0 1 1 -1 -1 -2 -1 1
1 0 -2 -2 -1 -0 -1 -1 -3 -1 0 -0 6 3 -1 1 -1 1 -4 -2 0 2 -0 0 -1 0 1 2 2 4 1 0 -0
-1 -1 1 1 -0 -0 0 -2 -2 -5 2 3 2 -1 -1 5 -1 1 -1 -1 -1 -3 2 2 -2 4 -2 -3 -6 0 2 2 -2
-1 -2 -2 -2 -1 -0 -1 0 -1 -4 -4 -2 2 6 -7 5 -6 2 2 1 0 -2 2 -4 3 1 2 3 3 -9 -11 2 2
1 0 -2 -2 -2 -3 -2 -2 2 2 -8 1 -3 -1 8 2 -9 -4 2 0 1 4 0 -1 -0 -2 1 3 -1 -1 -1 -4 -3
1 1 1 0 -1 -2 -3 -2 -2 -1 0 -8 2 1 -3 8 16 -2 -12 3 2 5 -1 7 2 0 -1 1 -9 0 1 1 -6
0 1 2 2 3 2 -0 -2 -4 -3 -2 0 -5 -7 -3 -4 2 19 12 -9 -10 1 5 6 4 -0 3 -3 -5 3 2 -1 -2
Height
5843 5843 5844 5848 5849 5851 5853 5855 5857 5858 5860 5862 5864 5866 5868 5869 5871 5872 5873 5873 5875 5875 5876 5876 5876 5877 5877 5877 5877 5876 5876 5875 5875
5840 5841 5842 5843 5845 5847 5848 5850 5854 5856 5858 5860 5861 5864 5866 5867 5869 5870 5872 5872 5873 5874 5875 5875 5876 5876 5876 5877 5877 5877 5876 5875 5875
5837 5837 5838 5840 5841 5843 5845 5847 5850 5852 5854 5856 5858 5861 5863 5865 5867 5868 5869 5871 5871 5872 5873 5873 5874 5875 5876 5876 5877 5877 5877 5876 5876
5834 5835 5836 5837 5839 5839 5841 5843 5846 5849 5851 5851 5854 5857 5860 5862 5864 5864 5866 5868 5869 5870 5871 5872 5872 5873 5874 5874 5875 5876 5876 5876 5876
5833 5832 5833 5834 5835 5836 5837 5839 5842 5844 5846 5848 5850 5850 5853 5856 5859 5861 5863 5864 5865 5866 5868 5869 5870 5871 5872 5873 5873 5874 5874 5874 5874
5829 5828 5830 5831 5831 5833 5834 5835 5836 5838 5841 5843 5845 5847 5849 5851 5853 5855 5857 5859 5860 5862 5863 5865 5866 5868 5869 5870 5871 5871 5872 5872 5872
5825 5826 5825 5827 5828 5828 5829 5830 5832 5833 5835 5837 5839 5841 5843 5845 5847 5849 5851 5852 5854 5856 5858 5860 5862 5863 5865 5866 5867 5868 5868 5869 5869
5821 5822 5822 5823 5824 5824 5825 5826 5827 5828 5830 5832 5833 5834 5836 5838 5840 5842 5844 5845 5847 5849 5851 5853 5856 5858 5859 5861 5862 5863 5865 5865 5866
5816 5816 5817 5818 5819 5819 5820 5821 5822 5823 5823 5825 5827 5828 5830 5832 5833 5835 5837 5838 5839 5841 5843 5846 5848 5851 5853 5854 5856 5857 5859 5860 5861
5810 5811 5811 5813 5813 5813 5813 5814 5815 5816 5817 5818 5820 5821 5822 5823 5825 5828 5830 5830 5831 5833 5835 5838 5840 5842 5844 5847 5849 5851 5852 5853 5855
5802 5803 5803 5805 5805 5806 5807 5807 5808 5809 5809 5811 5813 5814 5815 5815 5816 5819 5821 5823 5824 5825 5827 5828 5831 5834 5836 5838 5840 5842 5845 5846 5847
5793 5793 5794 5795 5796 5797 5798 5798 5799 5800 5801 5802 5803 5805 5806 5807 5809 5810 5811 5813 5814 5816 5817 5820 5822 5824 5827 5830 5832 5833 5835 5838 5840
5781 5782 5783 5784 5785 5786 5787 5788 5789 5790 5792 5793 5794 5795 5797 5797 5799 5800 5802 5803 5805 5807 5807 5809 5812 5814 5817 5820 5822 5824 5826 5827 5830
5770 5770 5771 5772 5773 5774 5774 5776 5778 5779 5780 5782 5783 5784 5786 5787 5788 5789 5791 5793 5795 5797 5800 5800 5800 5803 5806 5809 5812 5814 5816 5818 5820
5756 5757 5758 5758 5759 5760 5761 5762 5764 5766 5768 5769 5770 5771 5772 5774 5775 5778 5779 5781 5783 5785 5787 5789 5790 5792 5794 5797 5800 5801 5804 5807 5810
5741 5741 5742 5743 5744 5745 5747 5747 5748 5749 5753 5755 5757 5757 5757 5759 5761 5764 5767 5768 5770 5773 5775 5777 5779 5781 5782 5785 5787 5789 5791 5794 5797
5724 5725 5725 5726 5727 5728 5730 5731 5733 5733 5735 5738 5741 5743 5742 5744 5744 5748 5751 5754 5755 5758 5761 5764 5767 5768 5769 5771 5774 5777 5780 5781 5784
5705 5706 5707 5708 5709 5710 5711 5712 5714 5716 5716 5719 5721 5724 5727 5730 5728 5730 5733 5737 5740 5743 5744 5749 5751 5753 5756 5758 5760 5764 5768 5771 5773
5685 5685 5686 5687 5689 5690 5692 5693 5694 5696 5698 5699 5700 5702 5705 5710 5718 5715 5712 5716 5721 5725 5727 5730 5733 5736 5740 5742 5745 5751 5754 5757 5759
5664 5664 5665 5666 5667 5668 5669 5671 5672 5674 5675 5677 5680 5680 5682 5685 5693 5702 5702 5697 5699 5703 5709 5711 5713 5717 5721 5724 5731 5736 5738 5741 5744